Weather History for Denver, CO

Change the Weather History Date:

Thursday, February 14, 2013

  Actual Average (KDEN) Record (KDEN)
Temperature  
Mean Temperature 26 °F 32 °F  
Max Temperature 35 °F 46 °F 71 °F (1979)
Min Temperature 17 °F 18 °F -10 °F (1903)
Degree Days  
Heating Degree Days 39 33  
Month to date heating degree days 472  
Since 1 July heating degree days 4003  
Cooling Degree Days 0 0  
Month to date cooling degree days 0  
Year to date cooling degree days 0  
Moisture  
Dew Point 19 °F    
Average Humidity 78    
Maximum Humidity 93    
Minimum Humidity 56    
Precipitation  
Precipitation 0.00 in 0.01 in 0.41 in (1960)
Month to date precipitation 0.17  
Year to date precipitation 0.58  
Snow  
Snow 0.00 in - - ()
Month to date snowfall  
Since 1 July snowfall  
Snow Depth -    
Sea Level Pressure  
Sea Level Pressure 30.21 in    
Wind  
Wind Speed 9 mph (SE)    
Max Wind Speed 29 mph    
Max Gust Speed 38 mph    
Visibility 7 miles    
Events Snow    
T = Trace of Precipitation, MM = Missing Value Source: NWS Daily Summary

Daily Weather History Graph

Daily Weather History Graph

Search for Another Location

Airport:

Trip Planner

Search our weather history database for the weather conditions in past years. The results will help you decide how hot, cold, wet, or windy it might be!

Date:

Astronomy

Feb. 14, 2013 Rise Set
Actual Time 6:51 AM MST 5:33 PM MST
Civil Twilight 6:23 AM MST 6:01 PM MST
Nautical Twilight 5:52 AM MST 6:33 PM MST
Astronomical Twilight 5:20 AM MST 7:04 PM MST
Moon 8:55 AM MST (2/14) 10:38 PM MST (2/14)
Length of Visible Light 11h 37m
Length of Day
10h 42m
Waxing Crescent, 22% of the Moon is Illuminated
Feb 14
Waxing Crescent
Feb 17
First Quarter
Feb 25
Full
Mar 4
Last Quarter
Mar 11
New

Hourly Weather History & Observations

Time (MST) Temp. Windchill Dew Point Humidity Pressure Visibility Wind Dir Wind Speed Gust Speed Precip Events Conditions
7:50 AM 32.0 °F 25.6 °F 23.0 °F 69% 30.03 in 50.0 mi South 6.9 mph - N/A   Mostly Cloudy
8:50 AM 35.6 °F 30.7 °F 21.2 °F 56% 30.06 in 50.0 mi WSW 5.8 mph - N/A   Mostly Cloudy
9:48 AM 35.6 °F 26.6 °F 21.2 °F 56% 30.10 in 50.0 mi East 13.8 mph - N/A   Mostly Cloudy
10:55 AM 30.2 °F 15.4 °F 24.8 °F 80% 30.14 in 3.0 mi NNE 28.8 mph 38.0 mph N/A Snow Light Snow
11:50 AM 28.4 °F 13.8 °F 23.0 °F 80% 30.14 in 2.5 mi NNE 25.3 mph 34.5 mph N/A Snow Light Snow
12:50 PM 28.4 °F 16.2 °F 24.8 °F 86% 30.20 in 1.0 mi NNE 17.3 mph - N/A Snow Light Snow
1:47 PM 26.6 °F 15.2 °F 24.8 °F 93% 30.21 in 1.5 mi North 13.8 mph - N/A Snow Light Snow
2:47 PM 26.6 °F 16.8 °F 24.8 °F 93% 30.23 in 1.5 mi North 10.4 mph - N/A Snow Light Snow
3:30 PM 26.6 °F 17.5 °F 21.2 °F 80% 30.24 in 5.0 mi NNE 9.2 mph - N/A Snow Light Snow
3:50 PM 26.6 °F 20.0 °F 21.2 °F 80% 30.23 in 7.0 mi NNE 5.8 mph - N/A Snow Light Snow
4:47 PM 26.6 °F - 21.2 °F 80% 30.24 in 7.0 mi Calm Calm - N/A Snow Light Snow
5:47 PM 26.6 °F - 21.2 °F 80% 30.24 in 10.0 mi Calm Calm - N/A   Overcast
6:55 PM 21.2 °F - 12.2 °F 68% 30.26 in 10.0 mi Calm Calm - N/A   Overcast
7:55 PM 19.4 °F - 12.2 °F 74% 30.26 in 10.0 mi Calm Calm - N/A   Overcast
8:47 PM 17.6 °F - 12.2 °F 79% 30.26 in 10.0 mi Calm Calm - N/A   Overcast
9:28 PM 19.4 °F 12.8 °F 14.0 °F 80% 30.25 in 10.0 mi South 4.6 mph - N/A   Clear
9:48 PM 21.2 °F 14.9 °F 14.0 °F 74% 30.25 in 10.0 mi South 4.6 mph - N/A   Scattered Clouds
10:08 PM 21.2 °F 14.9 °F 15.8 °F 80% 30.25 in 10.0 mi South 4.6 mph - N/A   Mostly Cloudy
10:28 PM 21.2 °F 16.4 °F 17.6 °F 86% 30.25 in 10.0 mi South 3.5 mph - N/A   Overcast
10:48 PM 21.2 °F 14.9 °F 17.6 °F 86% 30.25 in 10.0 mi South 4.6 mph - N/A   Overcast
11:08 PM 21.2 °F 13.6 °F 15.8 °F 80% 30.24 in 10.0 mi South 5.8 mph - N/A   Overcast
11:28 PM 21.2 °F 13.6 °F 15.8 °F 80% 30.24 in 10.0 mi South 5.8 mph - N/A   Overcast
11:48 PM 21.2 °F 13.6 °F 15.8 °F 80% 30.24 in 10.0 mi SSE 5.8 mph - N/A   Overcast